Year,Month,Day,Hour,Minute,Value (Times are PST for temperature in C)
2017,01,20,00,00,3.60
2017,01,20,00,02,3.60
2017,01,20,00,03,3.60
2017,01,20,00,04,3.60
2017,01,20,00,05,3.60
2017,01,20,00,06,3.60
2017,01,20,00,07,3.60
2017,01,20,00,08,3.60
2017,01,20,00,10,3.60
2017,01,20,00,12,3.60
2017,01,20,00,13,3.60
2017,01,20,00,15,3.70
2017,01,20,00,17,3.70
2017,01,20,00,18,3.70
2017,01,20,00,19,3.60
2017,01,20,00,20,3.70
2017,01,20,00,21,3.70
2017,01,20,00,22,3.60
2017,01,20,00,23,3.60
2017,01,20,00,24,3.70
2017,01,20,00,26,3.70
2017,01,20,00,28,3.70
2017,01,20,00,29,3.70
2017,01,20,00,30,3.70
2017,01,20,00,31,3.70
2017,01,20,00,33,3.70
2017,01,20,00,34,3.70
2017,01,20,00,35,3.70
2017,01,20,00,36,3.70
2017,01,20,00,37,3.70
2017,01,20,00,38,3.70
2017,01,20,00,40,3.70
2017,01,20,00,41,3.70
2017,01,20,00,43,3.70
2017,01,20,00,44,3.70
2017,01,20,00,45,3.70
2017,01,20,00,46,3.70
2017,01,20,00,48,3.70
2017,01,20,00,49,3.70
2017,01,20,00,50,3.70
2017,01,20,00,51,3.70
2017,01,20,00,53,3.70
2017,01,20,00,54,3.70
2017,01,20,00,55,3.70
2017,01,20,00,56,3.70
2017,01,20,00,58,3.70
2017,01,20,01,00,3.70
2017,01,20,01,02,3.70
2017,01,20,01,04,3.80
2017,01,20,01,06,3.80
2017,01,20,01,07,3.80
2017,01,20,01,08,3.80
2017,01,20,01,09,3.80
2017,01,20,01,11,3.80
2017,01,20,01,12,3.80
2017,01,20,01,13,3.80
2017,01,20,01,14,3.80
2017,01,20,01,15,3.80
2017,01,20,01,16,3.80
2017,01,20,01,17,3.80
2017,01,20,01,18,3.80
2017,01,20,01,20,3.80
2017,01,20,01,21,3.80
2017,01,20,01,23,3.80
2017,01,20,01,24,3.80
2017,01,20,01,25,3.80
2017,01,20,01,26,3.80
2017,01,20,01,28,3.80
2017,01,20,01,30,3.80
2017,01,20,01,31,3.80
2017,01,20,01,33,3.80
2017,01,20,01,35,3.80
2017,01,20,01,37,3.80
2017,01,20,01,39,3.80
2017,01,20,01,40,3.80
2017,01,20,01,41,3.80
2017,01,20,01,42,3.80
2017,01,20,01,43,3.80
2017,01,20,01,45,3.70
2017,01,20,01,47,3.70
2017,01,20,01,48,3.70
2017,01,20,01,49,3.70
2017,01,20,01,51,3.70
2017,01,20,01,52,3.70
2017,01,20,01,53,3.70
2017,01,20,01,54,3.70
2017,01,20,01,55,3.70
2017,01,20,01,56,3.70
2017,01,20,01,57,3.70
2017,01,20,01,58,3.70
2017,01,20,01,59,3.70
2017,01,20,02,01,3.70
2017,01,20,02,02,3.70
2017,01,20,02,04,3.70
2017,01,20,02,05,3.70
2017,01,20,02,06,3.70
2017,01,20,02,07,3.70
2017,01,20,02,08,3.70
2017,01,20,02,09,3.70
2017,01,20,02,11,3.70
2017,01,20,02,12,3.70
2017,01,20,02,13,3.70
2017,01,20,02,15,3.70
2017,01,20,02,16,3.70
2017,01,20,02,17,3.70
2017,01,20,02,19,3.70
2017,01,20,02,20,3.60
2017,01,20,02,22,3.60
2017,01,20,02,23,3.60
2017,01,20,02,24,3.60
2017,01,20,02,26,3.60
2017,01,20,02,27,3.70
2017,01,20,02,28,3.70
2017,01,20,02,29,3.60
2017,01,20,02,30,3.70
2017,01,20,02,31,3.60
2017,01,20,02,32,3.70
2017,01,20,02,34,3.70
2017,01,20,02,35,3.70
2017,01,20,02,36,3.60
2017,01,20,02,38,3.70
2017,01,20,02,39,3.70
2017,01,20,02,41,3.70
2017,01,20,02,42,3.70
2017,01,20,02,43,3.70
2017,01,20,02,44,3.70
2017,01,20,02,46,3.70
2017,01,20,02,47,3.70
2017,01,20,02,48,3.60
2017,01,20,02,50,3.70
2017,01,20,02,51,3.70
2017,01,20,02,52,3.70
2017,01,20,02,53,3.60
2017,01,20,02,55,3.60
2017,01,20,02,56,3.60
2017,01,20,02,58,3.60
2017,01,20,03,00,3.60
2017,01,20,03,02,3.60
2017,01,20,03,03,3.60
2017,01,20,03,04,3.60
2017,01,20,03,05,3.60
2017,01,20,03,06,3.60
2017,01,20,03,08,3.60
2017,01,20,03,09,3.60
2017,01,20,03,10,3.60
2017,01,20,03,11,3.60
2017,01,20,03,12,3.60
2017,01,20,03,13,3.60
2017,01,20,03,14,3.60
2017,01,20,03,16,3.60
2017,01,20,03,18,3.60
2017,01,20,03,19,3.60
2017,01,20,03,20,3.60
2017,01,20,03,21,3.60
2017,01,20,03,23,3.60
2017,01,20,03,25,3.50
2017,01,20,03,27,3.50
2017,01,20,03,28,3.50
2017,01,20,03,29,3.50
2017,01,20,03,31,3.50
2017,01,20,03,32,3.50
2017,01,20,03,34,3.50
2017,01,20,03,35,3.50
2017,01,20,03,37,3.50
2017,01,20,03,38,3.50
2017,01,20,03,39,3.50
2017,01,20,03,41,3.50
2017,01,20,03,42,3.50
2017,01,20,03,43,3.50
2017,01,20,03,45,3.50
2017,01,20,03,46,3.50
2017,01,20,03,48,3.40
2017,01,20,03,49,3.40
2017,01,20,03,50,3.40
2017,01,20,03,51,3.40
2017,01,20,03,52,3.40
2017,01,20,03,53,3.40
2017,01,20,03,54,3.40
2017,01,20,03,56,3.40
2017,01,20,03,57,3.40
2017,01,20,03,58,3.40
2017,01,20,03,59,3.40
2017,01,20,04,01,3.40
2017,01,20,04,03,3.40
2017,01,20,04,04,3.40
2017,01,20,04,05,3.40
2017,01,20,04,06,3.40
2017,01,20,04,08,3.40
2017,01,20,04,09,3.40
2017,01,20,04,10,3.40
2017,01,20,04,11,3.30
2017,01,20,04,12,3.30
2017,01,20,04,13,3.40
2017,01,20,04,14,3.30
2017,01,20,04,16,3.30
2017,01,20,04,18,3.30
2017,01,20,04,19,3.30
2017,01,20,04,21,3.30
2017,01,20,04,22,3.30
2017,01,20,04,24,3.30
2017,01,20,04,25,3.30
2017,01,20,04,26,3.30
2017,01,20,04,27,3.30
2017,01,20,04,28,3.30
2017,01,20,04,30,3.30
2017,01,20,04,31,3.30
2017,01,20,04,33,3.30
2017,01,20,04,35,3.30
2017,01,20,04,37,3.30
2017,01,20,04,38,3.30
2017,01,20,04,40,3.30
2017,01,20,04,42,3.30
2017,01,20,04,43,3.30
2017,01,20,04,44,3.30
2017,01,20,04,45,3.30
2017,01,20,04,46,3.30
2017,01,20,04,48,3.30
2017,01,20,04,49,3.30
2017,01,20,04,50,3.30
2017,01,20,04,52,3.30
2017,01,20,04,53,3.30
2017,01,20,04,55,3.30
2017,01,20,04,56,3.30
2017,01,20,04,57,3.20
2017,01,20,04,58,3.20
2017,01,20,04,59,3.20
2017,01,20,05,01,3.20
2017,01,20,05,03,3.20
2017,01,20,05,04,3.20
2017,01,20,05,05,3.20
2017,01,20,05,07,3.20
2017,01,20,05,09,3.20
2017,01,20,05,10,3.20
2017,01,20,05,11,3.20
2017,01,20,05,12,3.20
2017,01,20,05,14,3.20
2017,01,20,05,15,3.20
2017,01,20,05,16,3.20
2017,01,20,05,17,3.20
2017,01,20,05,18,3.20
2017,01,20,05,20,3.20
2017,01,20,05,21,3.20
2017,01,20,05,23,3.20
2017,01,20,05,24,3.20
2017,01,20,05,25,3.20
2017,01,20,05,27,3.20
2017,01,20,05,28,3.20
2017,01,20,05,29,3.20
2017,01,20,05,30,3.20
2017,01,20,05,32,3.20
2017,01,20,05,33,3.20
2017,01,20,05,34,3.20
2017,01,20,05,35,3.20
2017,01,20,05,36,3.10
2017,01,20,05,37,3.10
2017,01,20,05,38,3.10
2017,01,20,05,39,3.10
2017,01,20,05,40,3.10
2017,01,20,05,42,3.10
2017,01,20,05,43,3.10
2017,01,20,05,44,3.10
2017,01,20,05,45,3.10
2017,01,20,05,46,3.10
2017,01,20,05,48,3.10
2017,01,20,05,49,3.10
2017,01,20,05,51,3.10
2017,01,20,05,53,3.10
2017,01,20,05,54,3.10
2017,01,20,05,55,3.10
2017,01,20,05,56,3.10
2017,01,20,05,58,3.10
2017,01,20,05,59,3.10
2017,01,20,06,00,3.10
2017,01,20,06,01,3.10
2017,01,20,06,02,3.10
2017,01,20,06,03,3.10
2017,01,20,06,04,3.10
2017,01,20,06,05,3.10
2017,01,20,06,06,3.00
2017,01,20,06,08,3.00
2017,01,20,06,09,3.00
2017,01,20,06,11,3.00
2017,01,20,06,12,3.00
2017,01,20,06,13,3.00
2017,01,20,06,14,3.00
2017,01,20,06,16,3.00
2017,01,20,06,17,3.00
2017,01,20,06,19,3.00
2017,01,20,06,20,3.00
2017,01,20,06,21,3.00
2017,01,20,06,22,3.00
2017,01,20,06,23,3.00
2017,01,20,06,24,3.00
2017,01,20,06,25,3.00
2017,01,20,06,26,3.00
2017,01,20,06,27,3.00
2017,01,20,06,28,3.00
2017,01,20,06,29,3.00
2017,01,20,06,30,2.90
2017,01,20,06,31,2.90
2017,01,20,06,32,2.90
2017,01,20,06,33,2.90
2017,01,20,06,34,2.90
2017,01,20,06,35,2.90
2017,01,20,06,37,2.90
2017,01,20,06,39,2.90
2017,01,20,06,40,2.90
2017,01,20,06,41,2.90
2017,01,20,06,42,2.90
2017,01,20,06,43,2.90
2017,01,20,06,44,2.90
2017,01,20,06,45,2.90
2017,01,20,06,47,2.90
2017,01,20,06,49,2.90
2017,01,20,06,50,2.90
2017,01,20,06,51,2.90
2017,01,20,06,52,2.90
2017,01,20,06,53,2.90
2017,01,20,06,55,2.90
2017,01,20,06,57,2.90
2017,01,20,06,58,2.90
2017,01,20,06,59,2.90
2017,01,20,07,01,3.00
2017,01,20,07,03,3.00
2017,01,20,07,04,3.00
2017,01,20,07,05,3.00
2017,01,20,07,06,3.00
2017,01,20,07,07,3.00
2017,01,20,07,09,3.00
2017,01,20,07,11,3.00
2017,01,20,07,12,3.10
2017,01,20,07,14,3.10
2017,01,20,07,16,3.10
2017,01,20,07,17,3.10
2017,01,20,07,18,3.10
2017,01,20,07,19,3.10
2017,01,20,07,20,3.10
2017,01,20,07,22,3.10
2017,01,20,07,24,3.10
2017,01,20,07,25,3.10
2017,01,20,07,26,3.10
2017,01,20,07,28,3.20
2017,01,20,07,30,3.20
2017,01,20,07,31,3.20
2017,01,20,07,32,3.20
2017,01,20,07,34,3.20
2017,01,20,07,36,3.20
2017,01,20,07,37,3.20
2017,01,20,07,38,3.20
2017,01,20,07,39,3.20
2017,01,20,07,40,3.20
2017,01,20,07,41,3.20
2017,01,20,07,43,3.20
2017,01,20,07,45,3.10
2017,01,20,07,46,3.10
2017,01,20,07,47,3.10
2017,01,20,07,48,3.10
2017,01,20,07,49,3.10
2017,01,20,07,50,3.10
2017,01,20,07,51,3.10
2017,01,20,07,52,3.10
2017,01,20,07,53,3.10
2017,01,20,07,55,3.10
2017,01,20,07,57,3.00
2017,01,20,07,58,3.00
2017,01,20,07,59,3.00
2017,01,20,08,01,2.90
2017,01,20,08,02,2.90
2017,01,20,08,04,2.90
2017,01,20,08,06,2.90
2017,01,20,08,07,2.80
2017,01,20,08,08,2.90
2017,01,20,08,09,2.80
2017,01,20,08,11,2.80
2017,01,20,08,12,2.80
2017,01,20,08,13,2.80
2017,01,20,08,15,2.80
2017,01,20,08,16,2.80
2017,01,20,08,18,2.80
2017,01,20,08,19,2.80
2017,01,20,08,20,2.80
2017,01,20,08,21,2.80
2017,01,20,08,23,2.80
2017,01,20,08,25,2.80
2017,01,20,08,26,2.80
2017,01,20,08,27,2.80
2017,01,20,08,28,2.80
2017,01,20,08,29,2.80
2017,01,20,08,30,2.80
2017,01,20,08,31,2.80
2017,01,20,08,32,2.80
2017,01,20,08,33,2.80
2017,01,20,08,35,2.80
2017,01,20,08,36,2.80
2017,01,20,08,37,2.80
2017,01,20,08,39,2.80
2017,01,20,08,41,2.80
2017,01,20,08,42,2.80
2017,01,20,08,44,2.80
2017,01,20,08,45,2.80
2017,01,20,08,46,2.80
2017,01,20,08,47,2.80
2017,01,20,08,48,2.80
2017,01,20,08,50,2.80
2017,01,20,08,52,2.80
2017,01,20,08,53,2.80
2017,01,20,08,54,2.80
2017,01,20,08,55,2.80
2017,01,20,08,56,2.70
2017,01,20,08,57,2.70
2017,01,20,08,59,2.70
2017,01,20,09,00,2.70
2017,01,20,09,01,2.70
2017,01,20,09,02,2.70
2017,01,20,09,04,2.70
2017,01,20,09,05,2.70
2017,01,20,09,07,2.80
2017,01,20,09,08,2.70
2017,01,20,09,10,2.70
2017,01,20,09,11,2.70
2017,01,20,09,12,2.70
2017,01,20,09,13,2.70
2017,01,20,09,15,2.70
2017,01,20,09,16,2.70
2017,01,20,09,17,2.70
2017,01,20,09,19,2.80
2017,01,20,09,20,2.80
2017,01,20,09,21,2.80
2017,01,20,09,22,2.80
2017,01,20,09,24,2.80
2017,01,20,09,26,2.80
2017,01,20,09,27,2.80
2017,01,20,09,28,2.80
2017,01,20,09,30,2.80
2017,01,20,09,31,2.80
2017,01,20,09,33,2.80
2017,01,20,09,34,2.80
2017,01,20,09,35,2.80
2017,01,20,09,37,2.80
2017,01,20,09,38,2.80
2017,01,20,09,39,2.80
2017,01,20,09,40,2.80
2017,01,20,09,42,2.80
2017,01,20,09,43,2.80
2017,01,20,09,44,2.80
2017,01,20,09,45,2.80
2017,01,20,09,47,2.80
2017,01,20,09,49,2.80
2017,01,20,09,50,2.80
2017,01,20,09,51,2.80
2017,01,20,09,52,2.80
2017,01,20,09,53,2.80
2017,01,20,09,55,2.80
2017,01,20,09,56,2.90
2017,01,20,09,58,2.90
2017,01,20,10,00,2.90
2017,01,20,10,01,2.90
2017,01,20,10,02,2.90
2017,01,20,10,04,2.90
2017,01,20,10,05,2.90
2017,01,20,10,06,2.90
2017,01,20,10,07,2.90
2017,01,20,10,09,2.90
2017,01,20,10,10,2.90
2017,01,20,10,12,2.90
2017,01,20,10,13,2.90
2017,01,20,10,14,2.90
2017,01,20,10,16,2.90
2017,01,20,10,17,2.90
2017,01,20,10,19,2.90
2017,01,20,10,20,2.90
2017,01,20,10,22,2.90
2017,01,20,10,24,3.00
2017,01,20,10,25,3.00
2017,01,20,10,26,3.00
2017,01,20,10,27,3.00
2017,01,20,10,29,3.00
2017,01,20,10,31,3.00
2017,01,20,10,33,3.00
2017,01,20,10,35,3.00
2017,01,20,10,36,3.00
2017,01,20,10,38,3.00
2017,01,20,10,40,3.00
2017,01,20,10,41,3.00
2017,01,20,10,42,3.10
2017,01,20,10,44,3.10
2017,01,20,10,46,3.10
2017,01,20,10,48,3.10
2017,01,20,10,49,3.20
2017,01,20,10,50,3.20
2017,01,20,10,51,3.20
2017,01,20,10,52,3.20
2017,01,20,10,53,3.20
2017,01,20,10,55,3.30
2017,01,20,10,56,3.30
2017,01,20,10,58,3.40
2017,01,20,10,59,3.50
2017,01,20,11,00,3.50
2017,01,20,11,02,3.60
2017,01,20,11,03,3.70
2017,01,20,11,05,3.80
2017,01,20,11,06,3.90
2017,01,20,11,07,3.90
2017,01,20,11,09,4.10
2017,01,20,11,11,4.20
2017,01,20,11,12,4.20
2017,01,20,11,13,4.20
2017,01,20,11,14,4.30
2017,01,20,11,16,4.60
2017,01,20,11,17,4.70
2017,01,20,11,18,4.90
2017,01,20,11,19,5.10
2017,01,20,11,20,5.20
2017,01,20,11,21,5.30
2017,01,20,11,22,5.40
2017,01,20,11,23,5.50
2017,01,20,11,25,5.70
2017,01,20,11,26,5.70
2017,01,20,11,27,5.80
2017,01,20,11,28,5.80
2017,01,20,11,29,5.90
2017,01,20,11,30,5.90
2017,01,20,11,31,6.00
2017,01,20,11,32,6.10
2017,01,20,11,33,6.10
2017,01,20,11,34,6.20
2017,01,20,11,35,6.20
2017,01,20,11,36,6.30
2017,01,20,11,38,6.40
2017,01,20,11,40,6.40
2017,01,20,11,41,6.50
2017,01,20,11,42,6.60
2017,01,20,11,43,6.60
2017,01,20,11,45,6.60
2017,01,20,11,46,6.70
2017,01,20,11,47,6.70
2017,01,20,11,48,6.70
2017,01,20,11,49,6.70
2017,01,20,11,50,6.70
2017,01,20,11,51,6.80
2017,01,20,11,52,6.80
2017,01,20,11,53,6.80
2017,01,20,11,54,6.80
2017,01,20,11,55,6.80
2017,01,20,11,56,6.80
2017,01,20,11,57,6.90
2017,01,20,11,59,6.90
2017,01,20,12,00,6.90
2017,01,20,12,01,6.90
2017,01,20,12,03,7.00
2017,01,20,12,04,7.00
2017,01,20,12,06,7.10
2017,01,20,12,07,7.10
2017,01,20,12,08,7.10
2017,01,20,12,09,7.10
2017,01,20,12,11,7.10
2017,01,20,12,12,7.10
2017,01,20,12,13,7.10
2017,01,20,12,14,7.10
2017,01,20,12,15,7.20
2017,01,20,12,16,7.20
2017,01,20,12,17,7.20
2017,01,20,12,18,7.20
2017,01,20,12,20,7.20
2017,01,20,12,21,7.20
2017,01,20,12,22,7.30
2017,01,20,12,23,7.30
2017,01,20,12,24,7.30
2017,01,20,12,26,7.30
2017,01,20,12,27,7.30
2017,01,20,12,28,7.40
2017,01,20,12,29,7.40
2017,01,20,12,31,7.40
2017,01,20,12,32,7.30
2017,01,20,12,34,7.40
2017,01,20,12,35,7.30
2017,01,20,12,36,7.30
2017,01,20,12,37,7.30
2017,01,20,12,38,7.30
2017,01,20,12,39,7.30
2017,01,20,12,41,7.30
2017,01,20,12,43,7.30
2017,01,20,12,44,7.40
2017,01,20,12,45,7.40
2017,01,20,12,47,7.40
2017,01,20,12,48,7.30
2017,01,20,12,49,7.30
2017,01,20,12,50,7.30
2017,01,20,12,51,7.30
2017,01,20,12,52,7.40
2017,01,20,12,53,7.40
2017,01,20,12,54,7.40
2017,01,20,12,55,7.40
2017,01,20,12,56,7.40
2017,01,20,12,57,7.40
2017,01,20,12,58,7.40
2017,01,20,12,59,7.40
2017,01,20,13,01,7.40
2017,01,20,13,02,7.40
2017,01,20,13,03,7.40
2017,01,20,13,04,7.40
2017,01,20,13,05,7.40
2017,01,20,13,06,7.40
2017,01,20,13,07,7.50
2017,01,20,13,08,7.50
2017,01,20,13,10,7.50
2017,01,20,13,11,7.50
2017,01,20,13,12,7.60
2017,01,20,13,13,7.60
2017,01,20,13,14,7.60
2017,01,20,13,16,7.60
2017,01,20,13,17,7.60
2017,01,20,13,19,7.60
2017,01,20,13,20,7.70
2017,01,20,13,21,7.70
2017,01,20,13,22,7.70
2017,01,20,13,23,7.70
2017,01,20,13,25,7.70
2017,01,20,13,26,7.80
2017,01,20,13,27,7.70
2017,01,20,13,28,7.70
2017,01,20,13,29,7.70
2017,01,20,13,31,7.70
2017,01,20,13,32,7.70
2017,01,20,13,33,7.80
2017,01,20,13,35,7.80
2017,01,20,13,37,7.80
2017,01,20,13,38,7.80
2017,01,20,13,39,7.70
2017,01,20,13,40,7.70
2017,01,20,13,41,7.70
2017,01,20,13,42,7.70
2017,01,20,13,44,7.70
2017,01,20,13,45,7.70
2017,01,20,13,46,7.70
2017,01,20,13,47,7.70
2017,01,20,13,49,7.70
2017,01,20,13,50,7.70
2017,01,20,13,51,7.70
2017,01,20,13,52,7.70
2017,01,20,13,54,7.70
2017,01,20,13,55,7.70
2017,01,20,13,56,7.70
2017,01,20,13,58,7.70
2017,01,20,13,59,7.70
2017,01,20,14,01,7.70
2017,01,20,14,02,7.70
2017,01,20,14,04,7.70
2017,01,20,14,05,7.70
2017,01,20,14,06,7.70
2017,01,20,14,08,7.70
2017,01,20,14,09,7.70
2017,01,20,14,10,7.70
2017,01,20,14,11,7.70
2017,01,20,14,12,7.70
2017,01,20,14,13,7.70
2017,01,20,14,14,7.70
2017,01,20,14,16,7.70
2017,01,20,14,18,7.70
2017,01,20,14,19,7.70
2017,01,20,14,20,7.70
2017,01,20,14,21,7.70
2017,01,20,14,23,7.80
2017,01,20,14,24,7.80
2017,01,20,14,25,7.80
2017,01,20,14,26,7.80
2017,01,20,14,27,7.80
2017,01,20,14,28,7.80
2017,01,20,14,29,7.80
2017,01,20,14,30,7.80
2017,01,20,14,31,7.80
2017,01,20,14,33,7.80
2017,01,20,14,34,7.80
2017,01,20,14,35,7.80
2017,01,20,14,36,7.80
2017,01,20,14,38,7.80
2017,01,20,14,40,7.80
2017,01,20,14,42,7.80
2017,01,20,14,43,7.80
2017,01,20,14,45,7.80
2017,01,20,14,46,7.80
2017,01,20,14,48,7.80
2017,01,20,14,49,7.80
2017,01,20,14,50,7.80
2017,01,20,14,51,7.80
2017,01,20,14,53,7.80
2017,01,20,14,54,7.80
2017,01,20,14,55,7.80
2017,01,20,14,56,7.80
2017,01,20,14,57,7.80
2017,01,20,14,58,7.80
2017,01,20,14,59,7.80
2017,01,20,15,00,7.70
2017,01,20,15,01,7.70
2017,01,20,15,02,7.80
2017,01,20,15,03,7.70
2017,01,20,15,04,7.70
2017,01,20,15,05,7.70
2017,01,20,15,07,7.70
2017,01,20,15,08,7.70
2017,01,20,15,10,7.70
2017,01,20,15,12,7.70
2017,01,20,15,13,7.70
2017,01,20,15,15,7.70
2017,01,20,15,16,7.70
2017,01,20,15,18,7.70
2017,01,20,15,19,7.70
2017,01,20,15,21,7.70
2017,01,20,15,23,7.70
2017,01,20,15,25,7.70
2017,01,20,15,27,7.70
2017,01,20,15,28,7.70
2017,01,20,15,30,7.70
2017,01,20,15,31,7.70
2017,01,20,15,32,7.70
2017,01,20,15,33,7.70
2017,01,20,15,34,7.70
2017,01,20,15,35,7.80
2017,01,20,15,36,7.80
2017,01,20,15,37,7.80
2017,01,20,15,39,7.80
2017,01,20,15,40,7.80
2017,01,20,15,41,7.80
2017,01,20,15,42,7.80
2017,01,20,15,44,7.80
2017,01,20,15,46,7.80
2017,01,20,15,48,7.80
2017,01,20,15,49,7.80
2017,01,20,15,50,7.80
2017,01,20,15,51,7.80
2017,01,20,15,52,7.80
2017,01,20,15,53,7.80
2017,01,20,15,54,7.70
2017,01,20,15,55,7.70
2017,01,20,15,56,7.70
2017,01,20,15,57,7.70
2017,01,20,15,59,7.70
2017,01,20,16,00,7.70
2017,01,20,16,01,7.70
2017,01,20,16,03,7.70
2017,01,20,16,04,7.70
2017,01,20,16,06,7.70
2017,01,20,16,07,7.70
2017,01,20,16,09,7.70
2017,01,20,16,10,7.70
2017,01,20,16,11,7.60
2017,01,20,16,12,7.60
2017,01,20,16,13,7.60
2017,01,20,16,14,7.60
2017,01,20,16,15,7.60
2017,01,20,16,17,7.60
2017,01,20,16,19,7.60
2017,01,20,16,20,7.50
2017,01,20,16,21,7.50
2017,01,20,16,23,7.40
2017,01,20,16,24,7.40
2017,01,20,16,25,7.40
2017,01,20,16,26,7.40
2017,01,20,16,27,7.40
2017,01,20,16,28,7.40
2017,01,20,16,29,7.40
2017,01,20,16,30,7.40
2017,01,20,16,32,7.40
2017,01,20,16,33,7.30
2017,01,20,16,34,7.30
2017,01,20,16,35,7.30
2017,01,20,16,36,7.30
2017,01,20,16,37,7.30
2017,01,20,16,39,7.30
2017,01,20,16,40,7.30
2017,01,20,16,41,7.30
2017,01,20,16,42,7.30
2017,01,20,16,43,7.30
2017,01,20,16,44,7.30
2017,01,20,16,45,7.30
2017,01,20,16,46,7.30
2017,01,20,16,47,7.30
2017,01,20,16,48,7.30
2017,01,20,16,49,7.30
2017,01,20,16,50,7.30
2017,01,20,16,51,7.30
2017,01,20,16,52,7.30
2017,01,20,16,53,7.20
2017,01,20,16,55,7.20
2017,01,20,16,56,7.20
2017,01,20,16,57,7.20
2017,01,20,16,59,7.20
2017,01,20,17,00,7.20
2017,01,20,17,01,7.20
2017,01,20,17,02,7.20
2017,01,20,17,03,7.20
2017,01,20,17,04,7.20
2017,01,20,17,06,7.20
2017,01,20,17,07,7.20
2017,01,20,17,08,7.20
2017,01,20,17,09,7.20
2017,01,20,17,10,7.10
2017,01,20,17,11,7.10
2017,01,20,17,12,7.10
2017,01,20,17,13,7.10
2017,01,20,17,14,7.10
2017,01,20,17,15,7.10
2017,01,20,17,17,7.10
2017,01,20,17,18,7.10
2017,01,20,17,19,7.10
2017,01,20,17,20,7.10
2017,01,20,17,21,7.10
2017,01,20,17,22,7.10
2017,01,20,17,23,7.10
2017,01,20,17,24,7.10
2017,01,20,17,25,7.10
2017,01,20,17,26,7.10
2017,01,20,17,27,7.10
2017,01,20,17,28,7.10
2017,01,20,17,30,7.10
2017,01,20,17,32,7.10
2017,01,20,17,33,7.10
2017,01,20,17,34,7.10
2017,01,20,17,36,7.10
2017,01,20,17,38,7.10
2017,01,20,17,39,7.10
2017,01,20,17,40,7.10
2017,01,20,17,42,6.90
2017,01,20,17,44,6.90
2017,01,20,17,45,6.80
2017,01,20,17,46,6.80
2017,01,20,17,47,6.80
2017,01,20,17,48,6.70
2017,01,20,17,49,6.70
2017,01,20,17,50,6.70
2017,01,20,17,52,6.60
2017,01,20,17,53,6.50
2017,01,20,17,55,6.40
2017,01,20,17,56,6.40
2017,01,20,17,57,6.30
2017,01,20,17,58,6.30
2017,01,20,17,59,6.30
2017,01,20,18,00,6.20
2017,01,20,18,01,6.20
2017,01,20,18,02,6.20
2017,01,20,18,04,6.10
2017,01,20,18,05,6.10
2017,01,20,18,06,6.10
2017,01,20,18,07,6.10
2017,01,20,18,08,6.00
2017,01,20,18,09,6.00
2017,01,20,18,11,5.90
2017,01,20,18,12,5.90
2017,01,20,18,13,5.80
2017,01,20,18,15,5.80
2017,01,20,18,17,5.80
2017,01,20,18,18,5.80
2017,01,20,18,20,5.70
2017,01,20,18,21,5.70
2017,01,20,18,22,5.70
2017,01,20,18,23,5.70
2017,01,20,18,24,5.70
2017,01,20,18,25,5.70
2017,01,20,18,27,5.60
2017,01,20,18,28,5.60
2017,01,20,18,29,5.60
2017,01,20,18,30,5.60
2017,01,20,18,31,5.60
2017,01,20,18,33,5.60
2017,01,20,18,34,5.60
2017,01,20,18,35,5.60
2017,01,20,18,36,5.60
2017,01,20,18,37,5.60
2017,01,20,18,39,5.50
2017,01,20,18,40,5.50
2017,01,20,18,41,5.50
2017,01,20,18,42,5.40
2017,01,20,18,44,5.40
2017,01,20,18,45,5.40
2017,01,20,18,46,5.40
2017,01,20,18,48,5.40
2017,01,20,18,49,5.40
2017,01,20,18,51,5.30
2017,01,20,18,52,5.30
2017,01,20,18,53,5.30
2017,01,20,18,55,5.30
2017,01,20,18,56,5.30
2017,01,20,18,57,5.30
2017,01,20,18,58,5.30
2017,01,20,18,59,5.30
2017,01,20,19,00,5.30
2017,01,20,19,01,5.20
2017,01,20,19,02,5.20
2017,01,20,19,03,5.20
2017,01,20,19,04,5.20
2017,01,20,19,06,5.20
2017,01,20,19,07,5.20
2017,01,20,19,08,5.20
2017,01,20,19,09,5.20
2017,01,20,19,10,5.20
2017,01,20,19,11,5.20
2017,01,20,19,12,5.20
2017,01,20,19,13,5.20
2017,01,20,19,15,5.10
2017,01,20,19,17,5.10
2017,01,20,19,19,5.10
2017,01,20,19,20,5.10
2017,01,20,19,22,5.10
2017,01,20,19,23,5.10
2017,01,20,19,24,5.10
2017,01,20,19,26,5.10
2017,01,20,19,27,5.10
2017,01,20,19,28,5.10
2017,01,20,19,30,5.10
2017,01,20,19,31,5.10
2017,01,20,19,32,5.00
2017,01,20,19,33,5.00
2017,01,20,19,34,5.00
2017,01,20,19,35,5.00
2017,01,20,19,36,5.00
2017,01,20,19,37,5.00
2017,01,20,19,38,5.00
2017,01,20,19,39,5.00
2017,01,20,19,41,5.00
2017,01,20,19,42,4.90
2017,01,20,19,43,4.90
2017,01,20,19,44,4.90
2017,01,20,19,45,4.90
2017,01,20,19,46,4.90
2017,01,20,19,47,4.90
2017,01,20,19,48,4.90
2017,01,20,19,49,4.90
2017,01,20,19,51,4.90
2017,01,20,19,52,4.90
2017,01,20,19,54,4.90
2017,01,20,19,55,4.90
2017,01,20,19,57,4.90
2017,01,20,19,58,4.90
2017,01,20,19,59,4.90
2017,01,20,20,01,4.90
2017,01,20,20,02,4.90
2017,01,20,20,03,4.90
2017,01,20,20,05,4.90
2017,01,20,20,07,4.80
2017,01,20,20,08,4.90
2017,01,20,20,10,4.80
2017,01,20,20,11,4.80
2017,01,20,20,12,4.80
2017,01,20,20,13,4.80
2017,01,20,20,14,4.80
2017,01,20,20,15,4.80
2017,01,20,20,16,4.80
2017,01,20,20,17,4.80
2017,01,20,20,18,4.80
2017,01,20,20,19,4.80
2017,01,20,20,21,4.80
2017,01,20,20,22,4.80
2017,01,20,20,24,4.80
2017,01,20,20,25,4.80
2017,01,20,20,26,4.80
2017,01,20,20,28,4.80
2017,01,20,20,29,4.80
2017,01,20,20,30,4.80
2017,01,20,20,31,4.80
2017,01,20,20,32,4.80
2017,01,20,20,33,4.80
2017,01,20,20,34,4.80
2017,01,20,20,36,4.80
2017,01,20,20,37,4.80
2017,01,20,20,38,4.70
2017,01,20,20,39,4.70
2017,01,20,20,41,4.70
2017,01,20,20,42,4.70
2017,01,20,20,43,4.70
2017,01,20,20,45,4.70
2017,01,20,20,46,4.70
2017,01,20,20,47,4.70
2017,01,20,20,48,4.70
2017,01,20,20,50,4.70
2017,01,20,20,52,4.70
2017,01,20,20,53,4.70
2017,01,20,20,54,4.70
2017,01,20,20,55,4.70
2017,01,20,20,56,4.70
2017,01,20,20,57,4.70
2017,01,20,20,58,4.70
2017,01,20,21,00,4.70
2017,01,20,21,01,4.70
2017,01,20,21,02,4.70
2017,01,20,21,04,4.70
2017,01,20,21,05,4.70
2017,01,20,21,07,4.70
2017,01,20,21,08,4.70
2017,01,20,21,10,4.70
2017,01,20,21,11,4.70
2017,01,20,21,12,4.70
2017,01,20,21,13,4.70
2017,01,20,21,14,4.70
2017,01,20,21,16,4.70
2017,01,20,21,17,4.70
2017,01,20,21,19,4.70
2017,01,20,21,20,4.60
2017,01,20,21,21,4.70
2017,01,20,21,22,4.70
2017,01,20,21,24,4.60
2017,01,20,21,26,4.60
2017,01,20,21,27,4.60
2017,01,20,21,28,4.60
2017,01,20,21,29,4.60
2017,01,20,21,30,4.60
2017,01,20,21,31,4.60
2017,01,20,21,32,4.60
2017,01,20,21,33,4.60
2017,01,20,21,35,4.60
2017,01,20,21,37,4.60
2017,01,20,21,38,4.60
2017,01,20,21,40,4.60
2017,01,20,21,41,4.60
2017,01,20,21,43,4.60
2017,01,20,21,44,4.60
2017,01,20,21,45,4.60
2017,01,20,21,46,4.60
2017,01,20,21,47,4.50
2017,01,20,21,48,4.50
2017,01,20,21,50,4.50
2017,01,20,21,51,4.50
2017,01,20,21,52,4.50
2017,01,20,21,53,4.50
2017,01,20,21,55,4.50
2017,01,20,21,56,4.50
2017,01,20,21,57,4.50
2017,01,20,21,58,4.50
2017,01,20,22,00,4.50
2017,01,20,22,01,4.50
2017,01,20,22,03,4.50
2017,01,20,22,04,4.50
2017,01,20,22,06,4.50
2017,01,20,22,08,4.50
2017,01,20,22,09,4.40
2017,01,20,22,10,4.40
2017,01,20,22,12,4.40
2017,01,20,22,13,4.40
2017,01,20,22,15,4.40
2017,01,20,22,16,4.40
2017,01,20,22,18,4.40
2017,01,20,22,20,4.40
2017,01,20,22,21,4.40
2017,01,20,22,22,4.40
2017,01,20,22,23,4.40
2017,01,20,22,24,4.40
2017,01,20,22,26,4.40
2017,01,20,22,27,4.40
2017,01,20,22,28,4.40
2017,01,20,22,30,4.40
2017,01,20,22,31,4.30
2017,01,20,22,32,4.30
2017,01,20,22,33,4.30
2017,01,20,22,34,4.30
2017,01,20,22,36,4.30
2017,01,20,22,37,4.30
2017,01,20,22,38,4.30
2017,01,20,22,40,4.30
2017,01,20,22,42,4.30
2017,01,20,22,43,4.30
2017,01,20,22,44,4.30
2017,01,20,22,46,4.30
2017,01,20,22,47,4.30
2017,01,20,22,48,4.30
2017,01,20,22,49,4.30
2017,01,20,22,51,4.30
2017,01,20,22,53,4.20
2017,01,20,22,54,4.20
2017,01,20,22,55,4.20
2017,01,20,22,56,4.20
2017,01,20,22,57,4.20
2017,01,20,22,58,4.20
2017,01,20,23,00,4.20
2017,01,20,23,01,4.20
2017,01,20,23,02,4.20
2017,01,20,23,03,4.30
2017,01,20,23,04,4.20
2017,01,20,23,05,4.30
2017,01,20,23,07,4.20
2017,01,20,23,08,4.20
2017,01,20,23,09,4.30
2017,01,20,23,10,4.20
2017,01,20,23,12,4.20
2017,01,20,23,13,4.30
2017,01,20,23,14,4.20
2017,01,20,23,15,4.20
2017,01,20,23,17,4.30
2017,01,20,23,18,4.30